Flag for U.S.A. Weather past 2 weeks in St. Augustine, Florida, U.S.A.

Now
87 °F

Broken clouds.


Feels Like: 99 °F
Forecast: 74 / 86 °F
Wind: 12 mph from East

Location: St. Augustine Airport

Current Time: Jul 31, 2015 at 4:06:02 PM

Latest Report: Jul 31, 2015 at 2:58 PM


Visibility: 10 mi

Pressure: 29.93 "Hg

Humidity: 72%

Dew point: 77 °F

Location of St. AugustineLocation

Historic Weather in St. Augustine — Graph

°F

St. Augustine temperature yesterday

Maximum temperature yesterday: 89 °F (at 12:58 PM)
Minimum temperature yesterday: 73 °F (at 5:58 AM)
Average temperature yesterday: 80 °F

Past Weeks' High & Low Weather Summary

 TemperatureHumidityPressure
High97 °F (Jul 22, 2:58 PM)100% (Jul 19, 4:02 AM)30.06 "Hg (Jul 19, 4:02 AM)
Low73 °F (Jul 30, 5:58 AM)49% (Jul 23, 3:58 PM)29.85 "Hg (Jul 26, 4:58 AM)
Average81 °F84%29.95 "Hg
* Reported Jul 16 2:58 PM — Jul 31 2:58 PM, St. Augustine, Weather by CustomWeather, © 2015

Note: Actual official high and low records may vary slightly from our data, if they occured in-between our weather recording intervals... More about our weather records

Advertising

St. Augustine weather history for previous 24 hours

 ConditionsComfort  
Time TempWeatherWind HumidityBarometerVisibility
2:58 PM
Fri, Jul 31
87 °FBroken clouds.12 mph72%29.93 "Hg10 mi
1:58 PM89 °FBroken clouds.5 mph68%29.96 "Hg10 mi
12:58 PM88 °FPassing clouds.7 mph67%29.97 "Hg10 mi
11:58 AM88 °FScattered clouds.5 mph67%29.98 "Hg10 mi
10:58 AM87 °FPassing clouds.12 mph69%29.98 "Hg10 mi
9:58 AM84 °FScattered clouds.9 mph83%29.98 "Hg10 mi
8:58 AM81 °FScattered clouds.8 mph85%29.98 "Hg6 mi
7:58 AM78 °FFog.8 mph90%29.97 "Hg4 mi
6:58 AM76 °FFog.5 mph94%29.96 "Hg4 mi
5:58 AM76 °FClear.6 mph94%29.95 "Hg10 mi
4:58 AM75 °FClear.6 mph96%29.94 "Hg10 mi
3:58 AM76 °FClear.7 mph94%29.93 "Hg10 mi
2:58 AM76 °FClear.6 mph94%29.95 "Hg10 mi
1:58 AM76 °FClear.6 mph94%29.96 "Hg10 mi
12:58 AM77 °FClear.7 mph90%29.97 "Hg10 mi
11:58 PM
Thu, Jul 30
77 °FClear.6 mph90%29.98 "Hg10 mi
10:58 PM77 °FClear.5 mph90%29.98 "Hg10 mi
9:58 PM78 °FClear.6 mph84%29.97 "Hg10 mi
8:58 PM79 °FPassing clouds.7 mph84%29.95 "Hg10 mi
7:58 PM83 °FMostly cloudy.10 mph77%29.94 "Hg10 mi
6:58 PM86 °FSunny.12 mph77%29.91 "Hg10 mi
5:58 PM87 °FSunny.8 mph72%29.90 "Hg10 mi
4:58 PM87 °FSunny.9 mph72%29.90 "Hg10 mi
Weather by CustomWeather, © 2015

See weather overviewHow to use our weather pages